User: anonymous   Login
Location: Unspecified
(0.0000°N, 0.0000°E)
Time: 19:03:54
(UTC+02:00)
Language:

Cosmos 1072 Rocket - Orbit

View from above orbital plane
View from above orbital plane
View from above satellite
View from above satellite

Ground track
Ground track

The orbit data is extracted from the following two-line orbital elements,

1 11239U 79003B   16241.74830808  .00000014  00000-0 -19965-5 0  9998
2 11239  82.9388 305.6298 0041899 128.7807   5.6376 13.75801590887642
Epoch (UTC): 28 August 2016 17:57:33
Eccentricity: 0.0041899
inclination: 82.9388°
perigee height: 948 km
apogee height: 1009 km
right ascension of ascending node: 305.6298°
argument of perigee: 128.7807°
revolutions per day: 13.75801590
mean anomaly at epoch: 5.6376°
orbit number at epoch: 88764

The dashed part of the orbit path shows where the satellite is in the earth's shadow,  

DLR